Le nostre stazioni meteo in Italia

Pubblicità
Il mio iltempo24.it
Ancona, Italia (16190): Temperatura & dewpoint: 11.02.2019 13:00:00 - 17.02.2019 13:00:00 (CET)Ancona, Italia (16190): reduced air pressure: 11.02.2019 13:00:00 - 17.02.2019 13:00:00 (CET)Ancona, Italia (16190): precipitazioni: 11.02.2019 13:00:00 - 17.02.2019 13:00:00 (CET)
Data & Tempo tt [°C] td [°C] ppp [hPa] rr [mm]
17.02.2019 13:00:00 10,0 3,0 1023,3 -
17.02.2019 12:00:00 9,4 1,2 1024,0 -
17.02.2019 11:00:00 9,5 -0,5 1024,2 -
17.02.2019 10:00:00 9,7 0,2 1024,3 -
17.02.2019 09:00:00 9,4 1,0 1024,4 -
17.02.2019 08:00:00 7,7 -0,4 1024,2 -
17.02.2019 07:00:00 7,1 -0,9 1024,0 -
17.02.2019 06:00:00 7,5 -1,1 1023,8 -
17.02.2019 05:00:00 8,0 -0,8 1023,8 -
17.02.2019 04:00:00 8,2 -0,7 1024,0 -
17.02.2019 03:00:00 8,5 -0,1 1024,2 -
17.02.2019 02:00:00 8,4 0,8 1024,5 -
17.02.2019 01:00:00 8,5 0,9 1024,8 -
17.02.2019 00:00:00 8,1 1,2 1024,8 -
16.02.2019 23:00:00 8,2 1,0 1025,0 -
16.02.2019 22:00:00 7,7 0,6 1025,4 -
16.02.2019 21:00:00 8,5 0,9 1025,2 -
16.02.2019 20:00:00 8,0 1,3 1025,1 -
16.02.2019 19:00:00 7,8 1,3 1025,5 -
16.02.2019 18:00:00 8,1 2,5 1025,2 -
16.02.2019 17:00:00 8,8 3,8 1025,4 -
16.02.2019 16:00:00 9,1 3,2 1025,6 -
16.02.2019 15:00:00 9,2 4,6 1026,1 -
16.02.2019 14:00:00 8,3 5,0 1026,5 -
16.02.2019 13:00:00 9,0 5,7 1026,8 -
16.02.2019 12:00:00 9,9 3,8 1027,3 -
16.02.2019 11:00:00 9,0 3,1 1027,3 -
16.02.2019 10:00:00 7,9 4,6 1027,3 -
16.02.2019 09:00:00 6,3 4,1 1027,5 -
16.02.2019 08:00:00 5,3 3,8 1027,1 -
16.02.2019 07:00:00 4,8 3,4 1026,8 -
16.02.2019 06:00:00 4,9 3,4 1026,7 -
16.02.2019 05:00:00 5,0 2,8 1026,6 -
16.02.2019 04:00:00 5,1 2,8 1026,6 -
16.02.2019 03:00:00 5,8 2,6 1026,9 -
16.02.2019 02:00:00 7,0 1,6 1026,9 -
16.02.2019 01:00:00 7,4 3,6 1026,9 -
16.02.2019 00:00:00 7,3 3,7 1026,8 -
15.02.2019 23:00:00 6,9 3,8 1026,7 -
15.02.2019 22:00:00 7,0 4,1 1026,8 -
15.02.2019 21:00:00 7,4 4,5 1026,9 -
15.02.2019 20:00:00 7,1 4,5 1026,7 -
15.02.2019 19:00:00 7,1 4,9 1026,6 -
15.02.2019 18:00:00 7,3 4,9 1025,9 -
15.02.2019 17:00:00 8,6 5,5 1025,4 -
15.02.2019 16:00:00 9,6 6,8 1026,3 -
15.02.2019 15:00:00 9,1 6,2 1026,0 -
15.02.2019 14:00:00 8,0 4,9 1026,3 -
15.02.2019 13:00:00 7,4 4,5 1026,6 -
15.02.2019 12:00:00 6,8 4,1 1027,2 -
15.02.2019 11:00:00 6,2 3,7 1027,2 -
15.02.2019 10:00:00 6,2 1,1 1027,4 -
15.02.2019 09:00:00 6,0 0,9 1027,4 -
15.02.2019 08:00:00 5,5 1,2 1027,2 -
15.02.2019 07:00:00 5,3 1,2 1026,7 -
15.02.2019 06:00:00 5,6 1,5 1026,9 -
15.02.2019 05:00:00 5,8 0,1 1026,6 -
15.02.2019 04:00:00 5,8 -0,1 1026,8 -
15.02.2019 03:00:00 6,2 1,1 1027,4 -
15.02.2019 02:00:00 6,3 1,9 1027,6 -
15.02.2019 01:00:00 6,0 -0,4 1028,1 -
15.02.2019 00:00:00 6,2 -0,4 1028,1 -
14.02.2019 23:00:00 6,1 -2,1 1027,8 -
14.02.2019 22:00:00 6,5 -2,5 1027,5 -
14.02.2019 21:00:00 6,6 -2,2 1027,4 -
14.02.2019 20:00:00 6,1 1,0 1027,6 -
14.02.2019 19:00:00 6,2 2,4 1027,8 -
14.02.2019 18:00:00 6,7 3,1 1027,6 -
14.02.2019 17:00:00 8,4 2,8 1027,8 -
14.02.2019 16:00:00 8,7 2,8 1028,3 -
14.02.2019 15:00:00 8,6 2,1 1029,0 -
14.02.2019 14:00:00 8,8 3,8 1029,3 -
14.02.2019 13:00:00 7,8 0,7 1029,8 -
14.02.2019 12:00:00 7,4 0,5 1030,6 -
14.02.2019 11:00:00 7,0 0,4 1030,8 -
14.02.2019 10:00:00 6,6 -0,7 1031,1 -
14.02.2019 09:00:00 5,6 -1,0 1031,2 -
14.02.2019 08:00:00 5,3 -1,9 1031,4 -
14.02.2019 07:00:00 4,5 -1,6 1031,4 0,0
14.02.2019 06:00:00 4,8 -1,3 1031,4 -
14.02.2019 05:00:00 4,6 -1,5 1031,1 -
14.02.2019 04:00:00 5,1 -1,0 1031,1 -
14.02.2019 03:00:00 4,7 -1,2 1031,8 -
14.02.2019 02:00:00 5,0 -0,9 1032,2 -
14.02.2019 01:00:00 5,0 -0,7 1032,6 0,0
14.02.2019 00:00:00 4,3 0,4 1032,8 -
13.02.2019 23:00:00 5,1 -0,6 1032,3 -
13.02.2019 22:00:00 5,3 -0,4 1032,2 -
13.02.2019 21:00:00 5,2 1,1 1032,0 -
13.02.2019 20:00:00 5,6 0,5 1032,1 -
13.02.2019 19:00:00 5,6 1,1 1031,8 0,0
13.02.2019 18:00:00 6,2 1,1 1030,8 -
13.02.2019 17:00:00 7,2 0,5 1030,4 -
13.02.2019 16:00:00 8,1 0,7 1030,3 -
13.02.2019 15:00:00 8,5 0,9 1030,3 -
13.02.2019 14:00:00 8,7 1,0 1030,4 -
13.02.2019 13:00:00 8,1 -0,2 1030,8 -
13.02.2019 12:00:00 8,4 1,0 1030,8 -
13.02.2019 11:00:00 8,5 -0,4 1030,9 -
13.02.2019 10:00:00 8,6 0,2 1030,9 -
13.02.2019 09:00:00 7,6 -0,5 1030,4 -
13.02.2019 08:00:00 6,1 -0,7 1030,0 -
13.02.2019 07:00:00 6,0 -0,4 1029,5 0,0
13.02.2019 06:00:00 6,2 -3,6 1028,9 -
13.02.2019 05:00:00 6,1 -1,9 1028,1 -
13.02.2019 04:00:00 6,4 -2,6 1027,8 -
13.02.2019 03:00:00 6,3 -1,9 1027,7 -
13.02.2019 02:00:00 6,9 0,7 1027,4 -
13.02.2019 01:00:00 7,0 0,4 1027,3 0,0
13.02.2019 00:00:00 7,2 1,0 1026,6 -
12.02.2019 23:00:00 7,2 0,3 1025,9 -
12.02.2019 22:00:00 7,7 -1,1 1025,0 -
12.02.2019 21:00:00 7,6 -1,7 1023,9 -
12.02.2019 20:00:00 7,3 1,1 1023,0 -
12.02.2019 19:00:00 7,3 4,9 1022,3 0,0
12.02.2019 18:00:00 7,3 4,4 1021,3 -
12.02.2019 17:00:00 8,0 2,4 1020,6 -
12.02.2019 16:00:00 8,7 3,7 1020,1 -
12.02.2019 15:00:00 8,8 1,6 1019,6 -
12.02.2019 14:00:00 8,2 1,0 1019,6 -
12.02.2019 13:00:00 8,0 1,3 1019,3 -
12.02.2019 12:00:00 7,6 1,1 1019,5 -
12.02.2019 11:00:00 7,4 0,3 1019,6 -
12.02.2019 10:00:00 7,5 -3,8 1019,5 -
12.02.2019 09:00:00 6,3 -4,9 1018,8 -
12.02.2019 08:00:00 4,9 -5,9 1018,4 -
12.02.2019 07:00:00 4,8 -5,4 1017,7 0,0
12.02.2019 06:00:00 4,7 -5,0 1017,3 -
12.02.2019 05:00:00 5,3 -4,1 1016,9 -
12.02.2019 04:00:00 5,4 -3,3 1016,3 -
12.02.2019 03:00:00 5,9 -1,4 1016,0 -
12.02.2019 02:00:00 6,4 2,0 1015,7 -
12.02.2019 01:00:00 7,0 1,6 1015,2 0,0
12.02.2019 00:00:00 7,2 3,8 1014,0 -
11.02.2019 23:00:00 7,1 3,8 1012,9 -
11.02.2019 22:00:00 6,7 3,8 1012,3 -
11.02.2019 21:00:00 6,9 1,5 1011,3 -
11.02.2019 20:00:00 7,6 3,8 1010,6 -
11.02.2019 19:00:00 7,8 3,6 1009,5 0,0
11.02.2019 18:00:00 7,6 4,7 1008,3 -
11.02.2019 17:00:00 7,3 4,6 1007,2 -
11.02.2019 16:00:00 8,5 2,7 1006,5 -
11.02.2019 15:00:00 9,3 2,5 1005,4 -
11.02.2019 14:00:00 8,3 3,7 1004,7 -
11.02.2019 13:00:00 6,4 4,5 1004,1 0,0

tt = Temperatura
td = dewpoint
ppp = reduced air pressure
rr = precipitazioni

Stazioni seguenti

WeatherPro
AMSI
MeteoEarth